TimeMST,TemperatureF,Dew PointF,Humidity,Sea Level PressureIn,VisibilityMPH,Wind Direction,Wind SpeedMPH,Gust SpeedMPH,PrecipitationIn,Events,Conditions,WindDirDegrees,DateUTC
12:53 AM,64.9,16.0,15,30.14,10.0,East,5.8,-,N/A,,Clear,80,2014-01-24 07:53:00
1:53 AM,64.0,16.0,16,30.16,10.0,East,6.9,-,N/A,,Clear,80,2014-01-24 08:53:00
2:53 AM,64.0,17.1,16,30.17,10.0,NNE,9.2,-,N/A,,Clear,30,2014-01-24 09:53:00
3:53 AM,61.0,19.0,20,30.17,10.0,Calm,Calm,-,N/A,,Clear,0,2014-01-24 10:53:00
4:53 AM,61.0,18.0,19,30.18,10.0,Calm,Calm,-,N/A,,Clear,0,2014-01-24 11:53:00
5:53 AM,57.0,21.9,26,30.21,10.0,Calm,Calm,-,N/A,,Clear,0,2014-01-24 12:53:00
6:53 AM,54.0,23.0,30,30.23,10.0,South,3.5,-,N/A,,Clear,190,2014-01-24 13:53:00
7:53 AM,55.0,23.0,29,30.26,10.0,West,3.5,-,N/A,,Clear,280,2014-01-24 14:53:00
8:53 AM,57.0,23.0,27,30.27,10.0,West,3.5,-,N/A,,Clear,270,2014-01-24 15:53:00
9:53 AM,59.0,26.1,28,30.29,10.0,Calm,Calm,-,N/A,,Clear,0,2014-01-24 16:53:00
10:53 AM,63.0,23.0,22,30.29,10.0,West,3.5,-,N/A,,Clear,280,2014-01-24 17:53:00
11:53 AM,64.0,21.0,19,30.28,10.0,WSW,3.5,-,N/A,,Clear,250,2014-01-24 18:53:00
12:53 PM,66.0,21.9,19,30.25,10.0,South,5.8,-,N/A,,Clear,170,2014-01-24 19:53:00
1:53 PM,66.9,21.9,18,30.21,10.0,SE,8.1,-,N/A,,Clear,140,2014-01-24 20:53:00
2:53 PM,66.9,21.9,18,30.20,10.0,SE,9.2,-,N/A,,Clear,140,2014-01-24 21:53:00
3:53 PM,68.0,21.9,17,30.19,10.0,SSE,6.9,-,N/A,,Clear,150,2014-01-24 22:53:00
4:53 PM,66.9,23.0,19,30.19,10.0,ESE,3.5,-,N/A,,Clear,120,2014-01-24 23:53:00
5:53 PM,64.9,23.0,20,30.20,10.0,ESE,3.5,-,N/A,,Clear,110,2014-01-25 00:53:00
6:53 PM,64.0,21.9,20,30.21,10.0,Variable,4.6,-,N/A,,Clear,0,2014-01-25 01:53:00
7:53 PM,64.0,23.0,21,30.21,10.0,Calm,Calm,-,N/A,,Clear,0,2014-01-25 02:53:00
8:53 PM,62.1,24.1,23,30.22,10.0,Calm,Calm,-,N/A,,Clear,0,2014-01-25 03:53:00
9:53 PM,62.1,28.0,28,30.22,10.0,NNW,3.5,-,N/A,,Clear,330,2014-01-25 04:53:00
10:53 PM,60.1,28.9,31,30.22,10.0,Calm,Calm,-,N/A,,Scattered Clouds,0,2014-01-25 05:53:00
11:53 PM,59.0,30.9,35,30.22,10.0,Calm,Calm,-,N/A,,Overcast,0,2014-01-25 06:53:00